KPOCKTRM

Guest
Details From KPOC - Brackett Field
To KTRM - Jacqueline Cochran Rgnl
Flight Number -
Tags generated
Created
Modified
Stats Distance 86 nm / 158 km
Max Altitude 9,700 ft / 2,957 m
Waypoints 3
Social Downloads 2
Likes 0
Share VATSIM

Download

Looking for another format? Having issues loading an existing format? Contact us
Advertisement - Login to hide

Notes

Basic altitude profile: - Ascent Rate: 500ft/min - Ascent Speed: 75kts - Cruise Altitude: 6500ft - Cruise Speed: 85kts - Descent Rate: 500ft/min - Descent Speed: 65kts Options: - Use NATs: yes - Use PACOTS: yes - Use low airways: yes - Use high airways: yes

Route

KPOC SETER KTRM

ID Type Via Altitude Latitude Longitude Leg Dist Tot Dist Heading (true) Name
O KPOC APT - 0 ft / 0 m 34.09171˚ -117.78165˚ - 0 nm - Brackett Field
SETER FIX - 9,700 ft / 2,957 m 33.90101˚ -117.10913˚ 35 nm 35 nm 109° / 109° -
O KTRM APT - 0 ft / 0 m 33.62639˚ -116.16079˚ 50 nm 85 nm 109° / 109° Jacqueline Cochran Rgnl

Altitude Profile

Advertisement - Login to hide

KPOC

Details ICAO KPOC (POC)
Name Brackett Field
Region United States
Timezone America/Los_Angeles (UTC-7.0)
Stats Elevation 1,011 ft / 308 m (AMSL)
Location 34.091713° -117.781646°
Runways 2
Magnetic Variation 11.868° E

METAR

KPOC 251747Z 24010KT 10SM BKN037 17/07 A3014

Decode

TAF

Not found

Departure Runways

ID Width Length Bearing (true) Bearing (mag) Surface Threshold Offset Overrun Length
08L 75 ft / 23 m 3,653 ft / 1,114 m 93.21° 81.34° Asphalt 0 ft / 0 m 0 ft / 0 m
08R 75 ft / 23 m 4,830 ft / 1,472 m 93.21° 81.34° Asphalt 0 ft / 0 m 0 ft / 0 m
26L 75 ft / 23 m 4,830 ft / 1,472 m 273.22° 261.35° Asphalt 689 ft / 210 m 0 ft / 0 m
26R 75 ft / 23 m 3,653 ft / 1,114 m 273.22° 261.35° Asphalt 0 ft / 0 m 0 ft / 0 m

KTRM

Details ICAO KTRM (TRM)
Name Jacqueline Cochran Rgnl
Region United States
Timezone America/Los_Angeles (UTC-7.0)
Stats Elevation -115 ft / -35 m (AMSL)
Location 33.626391° -116.160792°
Runways 2
Magnetic Variation 11.424° E

METAR

KTRM 251752Z AUTO 33012KT 10SM CLR 29/06 A2992 RMK AO2 SLP132 T02940056 10294 20200 50000

Decode

TAF

KTRM 251734Z 2518/2618 33011KT P6SM SKC FM252100 31012G20KT P6SM SKC FM260100 33018G28KT P6SM SKC FM261300 32012G20KT P6SM SKC

Decode

Destination Runways

ID Width Length Bearing (true) Bearing (mag) Surface Threshold Offset Overrun Length
12 98 ft / 30 m 4,997 ft / 1,523 m 135.14° 123.72° Asphalt 0 ft / 0 m 0 ft / 0 m
17 151 ft / 46 m 8,525 ft / 2,598 m 180.02° 168.60° Asphalt 0 ft / 0 m 200 ft / 61 m
30 98 ft / 30 m 4,997 ft / 1,523 m 315.15° 303.73° Asphalt 0 ft / 0 m 0 ft / 0 m
35 151 ft / 46 m 8,525 ft / 2,598 m 0.02° 348.60° Asphalt 0 ft / 0 m 200 ft / 61 m

Popular Alternatives